GW6347 Weather Reports


time (UTC)temp
C
wind
direction
speed
KPH
gust
KPH
rain 1hr
cm
rain 24hr
cm
rain mn
cm
humidity
%
barometer
mb
20260504081516 12 329 0.0 0.0 0.00 0.00 0.00 92 1017.5
20260504050018 15 130 0.0 0.0 0.00 0.00 0.00 82 1018.9
20260504044524 14 130 0.0 0.0 0.00 0.00 0.00 84 1018.9
20260504043008 14 133 0.0 0.0 0.00 0.00 0.00 84 1019.1
20260504041503 15 132 0.0 0.0 0.00 0.00 0.00 83 1019.0
20260504040011 15 132 0.0 0.0 0.00 0.00 0.00 82 1019.0
20260504034516 15 132 0.0 0.0 0.00 0.00 0.00 82 1019.0
20260504033020 15 132 0.0 0.0 0.00 0.00 0.00 79 1019.0
20260504031507 16 116 0.0 0.0 0.00 0.00 0.00 77 1019.1
20260504030006 16 118 0.0 0.0 0.00 0.00 0.00 75 1018.9
20260504024511 16 109 0.0 0.0 0.00 0.00 0.00 73 1018.8
20260504023016 17 115 0.0 0.0 0.00 0.00 0.00 72 1018.8
20260504021520 17 115 0.0 0.0 0.00 0.00 0.00 69 1018.6
20260504020010 18 120 0.0 0.0 0.00 0.00 0.00 67 1018.4
20260504014512 18 181 0.0 3.2 0.00 0.00 0.00 63 1018.3
20260504013014 20 227 0.0 3.2 0.00 0.00 0.00 59 1018.2
20260504011520 20 192 0.0 3.2 0.00 0.00 0.00 57 1018.0
20260504010022 20 262 0.0 0.0 0.00 0.00 0.00 54 1018.1
20260504004507 21 217 0.0 0.0 0.00 0.00 0.00 51 1017.9
20260504003014 21 207 1.6 3.2 0.00 0.00 0.00 49 1017.9
20260504001519 22 211 1.6 6.4 0.00 0.00 0.00 48 1017.8
20260504000024 22 215 4.8 9.7 0.00 0.00 0.00 46 1017.8
20260503234508 22 211 3.2 11.3 0.00 0.00 0.00 47 1017.8
20260503233012 23 198 4.8 9.7 0.00 0.00 0.00 44 1018.0
20260503231520 23 130 4.8 11.3 0.00 0.00 0.00 45 1017.9
20260503230022 23 207 3.2 14.5 0.00 0.00 0.00 44 1018.0
20260503224526 23 217 3.2 14.5 0.00 0.00 0.00 42 1018.1
20260503223008 23 240 4.8 12.9 0.00 0.00 0.00 41 1018.1
20260503221512 24 172 3.2 16.1 0.00 0.00 0.00 40 1018.2
20260503220021 23 263 4.8 24.1 0.00 0.00 0.00 40 1018.4
20260503214522 23 259 3.2 12.9 0.00 0.00 0.00 40 1018.5
20260503213034 23 257 8.0 19.3 0.00 0.00 0.00 39 1018.7
20260503211511 23 165 6.4 14.5 0.00 0.00 0.00 40 1018.8
20260503210018 24 244 6.4 16.1 0.00 0.00 0.00 39 1019.1
20260503204522 23 106 3.2 19.3 0.00 0.00 0.00 40 1019.2
20260503203026 23 267 3.2 16.1 0.00 0.00 0.00 40 1019.5
20260503201510 23 190 6.4 16.1 0.00 0.00 0.00 39 1019.6
20260503200016 24 195 8.0 12.9 0.00 0.00 0.00 38 1019.7
20260503194520 25 271 4.8 14.5 0.00 0.00 0.00 39 1020.0
20260503193026 25 49 1.6 16.1 0.00 0.00 0.00 35 1020.2
20260503191528 25 275 8.0 14.5 0.00 0.00 0.00 34 1020.6
20260503190035 25 9 4.8 14.5 0.00 0.00 0.00 35 1020.7
20260503184520 25 26 3.2 12.9 0.00 0.00 0.00 36 1020.8
20260503183023 24 81 8.0 16.1 0.00 0.00 0.00 34 1021.0
20260503181506 24 291 1.6 14.5 0.00 0.00 0.00 35 1021.1
20260503180012 24 23 8.0 16.1 0.00 0.00 0.00 34 1021.4
20260503174515 24 279 1.6 9.7 0.00 0.00 0.00 36 1021.6
20260503173021 24 11 6.4 14.5 0.00 0.00 0.00 35 1021.9
20260503171534 23 80 1.6 14.5 0.00 0.00 0.00 35 1022.2